Tracking 25709 objects as of 23-May-2022
HD Live streaming from Space Station
objects crossing your sky now

CRRES DEB (CANISTER)

Track CRRES DEB (CANISTER) now!


NORAD ID: 21588
Int'l Code: 1990-065D
Perigee: 374.7 km
Apogee: 32,398.6 km
Inclination: 18.3 °
Period: 569.4 minutes
Semi major axis: 22757 km
RCS: 0.1213 m2 (medium)
Launch date: July 25, 1990
Source: United States (US)
Launch site: AIR FORCE EASTERN TEST RANGE (AFETR)

Note: This is SATELLITE DEBRIS
aabbcc
Your satellite tracking list
Your tracking list is empty




NASA's NSSDC Master Catalog

Two Line Element Set (TLE):
1 21588U 90065D   22142.39181846  .00001030  00000-0  14492-2 0  9991
2 21588  18.3130 102.8843 7035860   8.4034 358.8176  2.52878779 88443
Source of the keplerian elements: AFSPC